Time,TemperatureF,DewpointF,PressureIn,WindDirection,WindDirectionDegrees,WindSpeedMPH,WindSpeedGustMPH,Humidity,HourlyPrecipIn,Conditions,Clouds,dailyrainin,SolarRadiationWatts/m^2,SoftwareType,DateUTC
2013-04-17 00:03:00,61.0,60.0,-100.00,WSW,257,5.0,7.0,97,0.00,,,0.00,0.000000,,2013-04-17 04:03:00,
2013-04-17 00:33:00,60.0,59.0,-100.00,West,281,3.0,8.0,98,0.00,,,0.00,0.000000,,2013-04-17 04:33:00,
2013-04-17 00:43:00,60.0,59.0,-100.00,West,281,3.0,8.0,98,0.00,,,0.00,0.000000,,2013-04-17 04:43:00,
2013-04-17 00:53:00,60.0,59.0,-100.00,West,281,3.0,8.0,98,0.00,,,0.00,0.000000,,2013-04-17 04:53:00,
2013-04-17 01:03:00,60.0,59.0,-100.00,West,281,3.0,8.0,98,0.00,,,0.00,0.000000,,2013-04-17 05:03:00,
2013-04-17 01:32:00,59.0,58.0,-100.00,SW,235,3.0,5.0,98,0.00,,,0.00,0.000000,,2013-04-17 05:32:00,
2013-04-17 01:43:00,59.0,58.0,-100.00,SW,235,3.0,5.0,98,0.00,,,0.00,0.000000,,2013-04-17 05:43:00,
2013-04-17 01:52:00,59.0,58.0,-100.00,SW,235,3.0,5.0,98,0.00,,,0.00,0.000000,,2013-04-17 05:52:00,
2013-04-17 02:02:00,59.0,58.0,-100.00,SW,235,3.0,5.0,98,0.00,,,0.00,0.000000,,2013-04-17 06:02:00,
2013-04-17 02:32:00,57.0,56.0,-100.00,SSE,158,2.0,4.0,98,0.00,,,0.00,0.000000,,2013-04-17 06:32:00,
2013-04-17 02:42:00,57.0,56.0,-100.00,SSE,158,2.0,4.0,98,0.00,,,0.00,0.000000,,2013-04-17 06:42:00,
2013-04-17 02:52:00,57.0,56.0,-100.00,SSE,158,2.0,4.0,98,0.00,,,0.00,0.000000,,2013-04-17 06:52:00,
2013-04-17 03:02:00,57.0,56.0,-100.00,SSE,158,2.0,4.0,98,0.00,,,0.00,0.000000,,2013-04-17 07:02:00,
2013-04-17 03:32:00,56.0,56.0,-100.00,South,185,1.0,3.0,99,0.00,,,0.00,0.000000,,2013-04-17 07:32:00,
2013-04-17 03:42:00,56.0,56.0,-100.00,South,185,1.0,3.0,99,0.00,,,0.00,0.000000,,2013-04-17 07:42:00,
2013-04-17 03:52:00,56.0,56.0,-100.00,South,185,1.0,3.0,99,0.00,,,0.00,0.000000,,2013-04-17 07:52:00,
2013-04-17 04:02:00,56.0,56.0,-100.00,South,185,1.0,3.0,99,0.00,,,0.00,0.000000,,2013-04-17 08:02:00,
2013-04-17 04:33:00,55.0,55.0,-100.00,SE,138,2.0,3.0,99,0.00,,,0.00,0.000000,,2013-04-17 08:33:00,
2013-04-17 04:42:00,55.0,55.0,-100.00,SE,138,2.0,3.0,99,0.00,,,0.00,0.000000,,2013-04-17 08:42:00,
2013-04-17 04:52:00,55.0,55.0,-100.00,SE,138,2.0,3.0,99,0.00,,,0.00,0.000000,,2013-04-17 08:52:00,
2013-04-17 05:02:00,55.0,55.0,-100.00,SE,138,2.0,3.0,99,0.00,,,0.00,0.000000,,2013-04-17 09:02:00,
2013-04-17 05:33:00,54.0,54.0,-100.00,ESE,115,2.0,3.0,99,0.00,,,0.00,0.000000,,2013-04-17 09:33:00,
2013-04-17 05:42:00,54.0,54.0,-100.00,ESE,115,2.0,3.0,99,0.00,,,0.00,0.000000,,2013-04-17 09:42:00,
2013-04-17 05:53:00,54.0,54.0,-100.00,ESE,115,2.0,3.0,99,0.00,,,0.00,0.000000,,2013-04-17 09:53:00,
2013-04-17 06:03:00,54.0,54.0,-100.00,ESE,115,2.0,3.0,99,0.00,,,0.00,0.000000,,2013-04-17 10:03:00,
2013-04-17 06:33:00,54.0,54.0,-100.00,NNW,330,0.0,3.0,100,0.00,,,0.00,0.000000,,2013-04-17 10:33:00,
2013-04-17 06:43:00,54.0,54.0,-100.00,NNW,330,0.0,3.0,100,0.00,,,0.00,0.000000,,2013-04-17 10:43:00,
2013-04-17 06:53:00,54.0,54.0,-100.00,NNW,330,0.0,3.0,100,0.00,,,0.00,0.000000,,2013-04-17 10:53:00,
2013-04-17 07:02:00,54.0,54.0,-100.00,NNW,330,0.0,3.0,100,0.00,,,0.00,0.000000,,2013-04-17 11:02:00,
2013-04-17 07:32:00,54.0,54.0,-100.00,West,278,1.0,3.0,100,0.00,,,0.00,2.000000,,2013-04-17 11:32:00,
2013-04-17 07:42:00,54.0,54.0,-100.00,West,278,1.0,3.0,100,0.00,,,0.00,2.000000,,2013-04-17 11:42:00,
2013-04-17 07:52:00,54.0,54.0,-100.00,West,278,1.0,3.0,100,0.00,,,0.00,2.000000,,2013-04-17 11:52:00,
2013-04-17 08:03:00,54.0,54.0,-100.00,West,278,1.0,3.0,100,0.00,,,0.00,2.000000,,2013-04-17 12:03:00,
2013-04-17 08:32:00,56.0,56.0,-100.00,NNE,31,0.0,2.0,100,0.00,,,0.00,36.000000,,2013-04-17 12:32:00,
2013-04-17 08:42:00,56.0,56.0,-100.00,NNE,31,0.0,2.0,100,0.00,,,0.00,36.000000,,2013-04-17 12:42:00,
2013-04-17 08:52:00,56.0,56.0,-100.00,NNE,31,0.0,2.0,100,0.00,,,0.00,36.000000,,2013-04-17 12:52:00,
2013-04-17 09:02:00,56.0,56.0,-100.00,NNE,31,0.0,2.0,100,0.00,,,0.00,36.000000,,2013-04-17 13:02:00,
2013-04-17 09:32:00,62.0,62.0,-100.00,East,101,2.0,3.0,99,0.00,,,0.00,93.000000,,2013-04-17 13:32:00,
2013-04-17 09:42:00,62.0,62.0,-100.00,East,101,2.0,3.0,99,0.00,,,0.00,93.000000,,2013-04-17 13:42:00,
2013-04-17 09:52:00,62.0,62.0,-100.00,East,101,2.0,3.0,99,0.00,,,0.00,93.000000,,2013-04-17 13:52:00,
2013-04-17 10:02:00,62.0,62.0,-100.00,East,101,2.0,3.0,99,0.00,,,0.00,93.000000,,2013-04-17 14:02:00,
2013-04-17 10:32:00,69.0,65.0,-100.00,North,352,3.0,6.0,87,0.00,,,0.00,225.000000,,2013-04-17 14:32:00,
2013-04-17 10:43:00,69.0,65.0,-100.00,North,352,3.0,6.0,87,0.00,,,0.00,225.000000,,2013-04-17 14:43:00,
2013-04-17 10:52:00,69.0,65.0,-100.00,North,352,3.0,6.0,87,0.00,,,0.00,225.000000,,2013-04-17 14:52:00,
2013-04-17 11:02:00,69.0,65.0,-100.00,North,352,3.0,6.0,87,0.00,,,0.00,225.000000,,2013-04-17 15:02:00,
2013-04-17 11:33:00,77.0,64.0,-100.00,ENE,60,3.0,8.0,65,0.00,,,0.00,699.000000,,2013-04-17 15:33:00,
2013-04-17 11:43:00,77.0,64.0,-100.00,ENE,60,3.0,8.0,65,0.00,,,0.00,699.000000,,2013-04-17 15:43:00,
2013-04-17 11:53:00,77.0,64.0,-100.00,ENE,60,3.0,8.0,65,0.00,,,0.00,699.000000,,2013-04-17 15:53:00,
2013-04-17 12:03:00,77.0,64.0,-100.00,ENE,60,3.0,8.0,65,0.00,,,0.00,699.000000,,2013-04-17 16:03:00,
2013-04-17 12:32:00,81.0,63.0,-100.00,SSE,154,4.0,9.0,54,0.00,,,0.00,882.000000,,2013-04-17 16:32:00,
2013-04-17 12:42:00,81.0,63.0,-100.00,SSE,154,4.0,9.0,54,0.00,,,0.00,882.000000,,2013-04-17 16:42:00,
2013-04-17 12:52:00,81.0,63.0,-100.00,SSE,154,4.0,9.0,54,0.00,,,0.00,882.000000,,2013-04-17 16:52:00,
2013-04-17 13:02:00,81.0,63.0,-100.00,SSE,154,4.0,9.0,54,0.00,,,0.00,882.000000,,2013-04-17 17:02:00,
2013-04-17 13:33:00,84.0,63.0,-100.00,WSW,248,4.0,7.0,49,0.00,,,0.00,983.000000,,2013-04-17 17:33:00,
2013-04-17 13:42:00,84.0,63.0,-100.00,WSW,248,4.0,7.0,49,0.00,,,0.00,983.000000,,2013-04-17 17:42:00,
2013-04-17 13:52:00,84.0,63.0,-100.00,WSW,248,4.0,7.0,49,0.00,,,0.00,983.000000,,2013-04-17 17:52:00,
2013-04-17 14:02:00,84.0,63.0,-100.00,WSW,248,4.0,7.0,49,0.00,,,0.00,983.000000,,2013-04-17 18:02:00,
2013-04-17 14:33:00,83.0,61.0,-100.00,South,184,4.0,10.0,47,0.00,,,0.00,912.000000,,2013-04-17 18:33:00,
2013-04-17 14:42:00,83.0,61.0,-100.00,South,184,4.0,10.0,47,0.00,,,0.00,912.000000,,2013-04-17 18:42:00,
2013-04-17 14:52:00,83.0,61.0,-100.00,South,184,4.0,10.0,47,0.00,,,0.00,912.000000,,2013-04-17 18:52:00,
2013-04-17 15:02:00,83.0,61.0,-100.00,South,184,4.0,10.0,47,0.00,,,0.00,912.000000,,2013-04-17 19:02:00,
2013-04-17 15:32:00,81.0,62.0,-100.00,SW,234,3.0,10.0,52,0.00,,,0.00,330.000000,,2013-04-17 19:32:00,
2013-04-17 15:42:00,81.0,62.0,-100.00,SW,234,3.0,10.0,52,0.00,,,0.00,330.000000,,2013-04-17 19:42:00,
2013-04-17 15:52:00,81.0,62.0,-100.00,SW,234,3.0,10.0,52,0.00,,,0.00,330.000000,,2013-04-17 19:52:00,
2013-04-17 16:03:00,81.0,62.0,-100.00,SW,234,3.0,10.0,52,0.00,,,0.00,330.000000,,2013-04-17 20:03:00,
2013-04-17 16:33:00,87.0,61.0,-100.00,SSW,202,3.0,9.0,42,0.00,,,0.00,835.000000,,2013-04-17 20:33:00,
2013-04-17 16:42:00,87.0,61.0,-100.00,SSW,202,3.0,9.0,42,0.00,,,0.00,835.000000,,2013-04-17 20:42:00,
2013-04-17 16:52:00,87.0,61.0,-100.00,SSW,202,3.0,9.0,42,0.00,,,0.00,835.000000,,2013-04-17 20:52:00,
2013-04-17 17:03:00,87.0,61.0,-100.00,SSW,202,3.0,9.0,42,0.00,,,0.00,835.000000,,2013-04-17 21:03:00,
2013-04-17 17:33:00,83.0,58.0,-100.00,WSW,252,4.0,10.0,43,0.00,,,0.00,557.000000,,2013-04-17 21:33:00,
2013-04-17 17:43:00,83.0,58.0,-100.00,WSW,252,4.0,10.0,43,0.00,,,0.00,557.000000,,2013-04-17 21:43:00,
2013-04-17 17:53:00,83.0,58.0,-100.00,WSW,252,4.0,10.0,43,0.00,,,0.00,557.000000,,2013-04-17 21:53:00,
2013-04-17 18:02:00,83.0,58.0,-100.00,WSW,252,4.0,10.0,43,0.00,,,0.00,557.000000,,2013-04-17 22:02:00,
2013-04-17 18:33:00,80.0,61.0,-100.00,WSW,252,6.0,13.0,52,0.00,,,0.00,149.000000,,2013-04-17 22:33:00,
2013-04-17 18:43:00,80.0,61.0,-100.00,WSW,252,6.0,13.0,52,0.00,,,0.00,149.000000,,2013-04-17 22:43:00,
2013-04-17 18:53:00,80.0,61.0,-100.00,WSW,252,6.0,13.0,52,0.00,,,0.00,149.000000,,2013-04-17 22:53:00,
2013-04-17 19:02:00,80.0,61.0,-100.00,WSW,252,6.0,13.0,52,0.00,,,0.00,149.000000,,2013-04-17 23:02:00,
2013-04-17 19:32:00,77.0,61.0,-100.00,WSW,254,5.0,12.0,57,0.00,,,0.00,68.000000,,2013-04-17 23:32:00,
2013-04-17 19:42:00,77.0,61.0,-100.00,WSW,254,5.0,12.0,57,0.00,,,0.00,68.000000,,2013-04-17 23:42:00,
2013-04-17 19:52:00,77.0,61.0,-100.00,WSW,254,5.0,12.0,57,0.00,,,0.00,68.000000,,2013-04-17 23:52:00,
2013-04-17 20:02:00,77.0,61.0,-100.00,WSW,254,5.0,12.0,57,0.00,,,0.00,68.000000,,2013-04-18 00:02:00,
2013-04-17 20:32:00,72.0,63.0,-100.00,West,270,3.0,7.0,73,0.00,,,0.00,17.000000,,2013-04-18 00:32:00,
2013-04-17 20:43:00,72.0,63.0,-100.00,West,270,3.0,7.0,73,0.00,,,0.00,17.000000,,2013-04-18 00:43:00,
2013-04-17 20:52:00,72.0,63.0,-100.00,West,270,3.0,7.0,73,0.00,,,0.00,17.000000,,2013-04-18 00:52:00,
2013-04-17 21:02:00,72.0,63.0,-100.00,West,270,3.0,7.0,73,0.00,,,0.00,17.000000,,2013-04-18 01:02:00,
2013-04-17 21:32:00,68.0,64.0,-100.00,WSW,246,6.0,13.0,86,0.00,,,0.00,0.000000,,2013-04-18 01:32:00,
2013-04-17 21:42:00,68.0,64.0,-100.00,WSW,246,6.0,13.0,86,0.00,,,0.00,0.000000,,2013-04-18 01:42:00,
2013-04-17 21:52:00,68.0,64.0,-100.00,WSW,246,6.0,13.0,86,0.00,,,0.00,0.000000,,2013-04-18 01:52:00,
2013-04-17 22:02:00,68.0,64.0,-100.00,WSW,246,6.0,13.0,86,0.00,,,0.00,0.000000,,2013-04-18 02:02:00,
2013-04-17 22:32:00,68.0,62.0,-100.00,WSW,250,6.0,13.0,82,0.00,,,0.00,0.000000,,2013-04-18 02:32:00,
2013-04-17 22:42:00,68.0,62.0,-100.00,WSW,250,6.0,13.0,82,0.00,,,0.00,0.000000,,2013-04-18 02:42:00,
2013-04-17 22:52:00,68.0,62.0,-100.00,WSW,250,6.0,13.0,82,0.00,,,0.00,0.000000,,2013-04-18 02:52:00,
2013-04-17 23:02:00,68.0,62.0,-100.00,WSW,250,6.0,13.0,82,0.00,,,0.00,0.000000,,2013-04-18 03:02:00,
2013-04-17 23:33:00,67.0,61.0,-100.00,West,267,5.0,9.0,81,0.00,,,0.00,0.000000,,2013-04-18 03:33:00,
2013-04-17 23:43:00,67.0,61.0,-100.00,West,267,5.0,9.0,81,0.00,,,0.00,0.000000,,2013-04-18 03:43:00,
2013-04-17 23:53:00,67.0,61.0,-100.00,West,267,5.0,9.0,81,0.00,,,0.00,0.000000,,2013-04-18 03:53:00,